Regional Weather Roundup
Issued by NWS

Home | Current Version | Previous Version | Graphics & Text | Print | Product List | Glossary Off
Versions: 1 2 3 4 5 6 7 8 9 10 11 12 13 14 15 16 17 18 19 20 21 22 23 24 25 26 27 28 29 30 31 32 33 34 35 36 37 38 39 40 41 42 43 44 45 46 47 48 49 50

000
ASUS43 KMKX 301500
RWRWI

WISCONSIN REGIONAL WEATHER ROUNDUP
NATIONAL WEATHER SERVICE MILWAUKEE/SULLIVAN WI
1000 AM CDT THU MAR 30 2017

NOTE: "FAIR" INDICATES FEW OR NO CLOUDS BELOW 12,000 FEET WITH NO
SIGNIFICANT WEATHER AND/OR OBSTRUCTIONS TO VISIBILITY.

WIZ001-002-006>008-014>016-023>028-301600-
NORTHWEST WISCONSIN

CITY           SKY/WX    TMP DP  RH WIND       PRES   REMARKS
SUPERIOR ARPT  CLOUDY    35  33  92 E12G18    30.03F WCI  27
ASHLAND        CLOUDY    37  33  85 VRB6      30.02F WCI  32
HAYWARD        CLOUDY    41  29  62 E12       29.96F
SIREN          CLOUDY    39  28  65 CALM      29.96F
CUMBERLAND     CLOUDY    37  32  81 E8        29.94F WCI  31
RICE LAKE      CLOUDY    38  33  82 CALM      29.96F
CHETEK         CLOUDY    37  33  84 E6        29.94F WCI  32
LADYSMITH      CLOUDY    38  32  80 E9        29.97F WCI  31
EAU CLAIRE     NOT AVBL
MENOMONIE      CLOUDY    38  35  87 NE15      29.92F WCI  29
NEW RICHMOND   CLOUDY    38  32  78 E13G23    29.92F WCI  31
OSCEOLA        CLOUDY    42  33  71 E13G18    29.96F
$$

WIZ003>005-009-010-017-018-301600-
NORTH CENTRAL WISCONSIN

CITY           SKY/WX    TMP DP  RH WIND       PRES   REMARKS
MANITOWISH WTR CLOUDY    36  28  75 E7        29.99F WCI  30
ARBOR VITAE    CLOUDY    37  30  78 E5        29.98F WCI  33
WOODRUFF       CLOUDY    37  30  78 E5        29.98F WCI  33
RHINELANDER    CLOUDY    36  27  69 E13       29.98F WCI  27
EAGLE RIVER    CLOUDY    34  25  69 E7        29.99F WCI  28
LAND O LAKES   CLOUDY    34  25  69 E6        30.02F WCI  29
PHILLIPS       CLOUDY    35  30  82 E8        29.97F WCI  29
TOMAHAWK       CLOUDY    34  31  89 NE5       29.98F WCI  30
MEDFORD        CLOUDY    34  32  93 E13       29.94S WCI  25
MERRILL        CLOUDY    35  32  89 E9        29.97F WCI  28
$$

WIZ029-030-035-036-043>047-301600-
CENTRAL WISCONSIN

CITY           SKY/WX    TMP DP  RH WIND       PRES   REMARKS
WAUSAU         CLOUDY    34  32  92 E10       29.94F WCI  26
MOSINEE        CLOUDY    34  34 100 E14G21    29.95F WCI  24
MARSHFIELD     CLOUDY    34  32  92 E16       29.91F WCI  24
STEVENS POINT  CLOUDY    32  32 100 NE12G22   29.95F WCI  23
WAUPACA        LGT SNOW  35  33  92 NE7G17    29.96S WCI  30
WAUTOMA        LGT RAIN  35  34  96 NE15G23   29.90F WCI  25
WISC RAPIDS    CLOUDY    36  35  96 E16G23    29.93F WCI  26
CAMP DOUGLAS   CLOUDY    37  36  93 E14       29.88S FOG     WCI  29
$$

WIZ011>013-019>022-031-037>040-048>050-301600-
NORTHEAST WISCONSIN

CITY           SKY/WX    TMP DP  RH WIND       PRES   REMARKS
ANTIGO         CLOUDY    32  30  92 E12       29.97F WCI  23
SHAWANO        LGT SNOW  35  32  90 NE14      30.00F WCI  25
OCONTO         CLOUDY    32  32  99 NE8       30.02F WCI  25
STURGEON BAY   LGT SNOW  33  31  92 NE10      30.02F FOG     WCI  25
GREEN BAY      LGT SNOW  34  34 100 NE16      29.98F FOG     WCI  24
MANITOWOC      NOT AVBL
APPLETON       LGT SNOW  34  34 100 NE14G21   29.93F WCI  24
CLINTONVILLE   LGT SNOW  32  32 100 NE12      29.98F WCI  23
OSHKOSH        LGT SNOW  34  32  92 NE16      29.90F FOG     WCI  24
$$

WIZ032>034-041-042-053>061-301600-
SOUTHWEST WISCONSIN

CITY           SKY/WX    TMP DP  RH WIND       PRES   REMARKS
LA CROSSE      CLOUDY    40  36  86 E13G20    29.86F WCI  32
SPARTA         LGT RAIN  37  35  96 NE14G20   29.88F WCI  28
VIROQUA        CLOUDY    36  35  98 E20       29.81F WCI  25
BOSCOBEL       LGT RAIN  39  37  92 NE10G17   29.79F WCI  32
PRAIRIE DU CHI LGT RAIN  38  37  97 NE9G18    29.78S WCI  32
PLATTEVILLE    CLOUDY    39  39 100 NE20G26   29.74S WCI  29
$$

WIZ056-057-062-063-064-067-068-301600-
SOUTH CENTRAL WISCONSIN

CITY           SKY/WX    TMP DP  RH WIND       PRES   REMARKS
REEDSBURG      DRIZZLE   35  35 100 E12G18    29.85F WCI  26
BARABOO/DELLS  MIX PCPN  36  34  93 NE10G18   29.86F WCI  28
LONE ROCK      RAIN      37  34  87 NE15G21   29.80F FOG     WCI  28
MINERAL POINT  LGT RAIN  37  37 100 NE15G26   29.75F WCI  28
MADISON        LGT RAIN  37  35  92 NE16G24   29.80F WCI  28
MIDDLETON      CLOUDY    38  38 100 NE15      29.81F WCI  30
WATERTOWN      RAIN      37  37 100 E17G23    29.83F WCI  27
MONROE         LGT RAIN  36  36 100 NE16G28   29.73F WCI  26
JANESVILLE     LGT RAIN  39  39 100 E17G23    29.77F WCI  30
$$

WIZ051-052-058>065-066-070>072-301600-
SOUTHEAST WISCONSIN

CITY           SKY/WX    TMP DP  RH WIND       PRES   REMARKS
MILWAUKEE      LGT RAIN  38  35  89 NE15      29.83F WCI  29
WAUKESHA       LGT RAIN  34  34 100 NE17G29   29.83F FOG     WCI  23
MILWAUKEE/TIMM DRIZZLE   36  34  93 NE15G21   29.86F WCI  26
RACINE         LGT RAIN  39  36  89 NE12      29.83F FOG     WCI  32
KENOSHA        LGT RAIN  39  38  96 NE12      29.82R FOG     WCI  32
FOND DU LAC    RAIN      38  34  85 E13G20    29.89F WCI  30
SHEBOYGAN      LGT RAIN  37  34  89 NE18G24   29.91F WCI  27
WEST BEND      RAIN      36  36 100 E17       29.88F WCI  25
JUNEAU         LGT RAIN  35  34  95 NE16G22   29.86F WCI  25
$$

LSZ147-162-301600-
LAKE SUPERIOR

STATION/POSITION TIME  TEMP    WIND        PRES    WAVE
                       AIR SEA DIR/SP/G            HT/PER
                 (UTC) (F)     (DEG/KT/KT) (MB)    (FT/S)
DEVILS ISLAND    1400   35      80/ 12/ 13 1018.4F
PORT WING        1440   35      30/ 10/ 11 1016.9F
SAXON HARBOR     1440   35      CALM  /  2 1016.3F
$$

LMZ867-665-643>646-301600-
LAKE MICHIGAN

STATION/POSITION TIME  TEMP    WIND        PRES    WAVE
                       AIR SEA DIR/SP/G            HT/PER
                 (UTC) (F)     (DEG/KT/KT) (MB)    (FT/S)
CHAMBERS ISLAND  1440   32      40/ 10/ 12 1017.3F
NORTHPORT PIER   1440   34      80/ 12/ 14 1017.9F
SISTER BAY       1236   36     110/  8/ 14   N/A
KEWAUNEE LAKESHO 1430   35      50/ 10/ 14 1015.4F
SHEBOYGAN LAKESH 1400   36      60/ 22/ 25 1013.9F
PORT WASHINGTON  1440   38      60/ 13/ 18 1013.5F
MILWAUKEE LAKESH 1430   37      60/ 16/ 18   N/A
KENOSHA   LAKESH 1400   38      70/ 13/ 14 1010.2
$$

TC  - TEMPERATURE IN CELSIUS
VSB - VISIBILITY IN STATUTE MILES
WCI - WIND CHILL INDEX
HX  - HEAT INDEX





USA.gov is the U.S. government's official web portal to all federal, state and local government web resources and services.